Temperature
11 11 11 11 11 11 11 11 11 11 11 11 11 11 12 12 12 12 12 12 13 13 13 13 13 13 14 14 14 14 14 14 14 14 14 15 15 15 15 15 15 15 15
11 11 11 11 11 11 11 11 11 11 11 11 11 11 11 12 12 12 12 12 12 12 13 13 13 13 13 13 13 14 14 14 14 14 14 14 14 14 14 15 15 15 15
12 11 11 11 11 11 11 11 11 11 11 11 11 11 11 11 12 12 12 12 12 12 12 13 13 13 13 13 13 13 13 14 14 14 14 14 14 14 14 14 14 14 14
12 11 11 11 11 11 11 11 11 11 11 11 11 11 11 11 11 11 12 12 12 12 12 12 12 13 13 13 13 13 13 13 13 13 13 13 13 13 13 13 13 14 14
12 12 11 11 11 11 11 11 11 11 11 11 11 11 11 11 11 11 12 12 12 12 12 12 12 13 13 13 13 13 13 13 13 13 13 13 13 13 13 13 13 13 13
12 12 11 11 11 11 11 11 11 11 11 11 11 11 11 11 12 12 12 11 12 12 12 12 12 12 13 13 13 13 13 13 13 13 13 13 13 13 13 13 13 13 12
12 12 12 11 11 11 11 11 11 11 11 11 11 11 11 11 11 12 12 11 11 12 12 12 12 12 12 12 12 12 12 13 13 13 13 13 13 13 13 13 13 13 13
12 12 12 11 11 11 11 11 11 11 11 11 11 11 11 11 11 12 12 11 11 11 12 12 12 12 12 12 12 12 12 12 12 13 13 13 13 13 13 13 13 12 12
13 12 12 12 12 12 11 11 11 11 11 11 11 11 11 11 11 11 12 11 11 11 11 12 12 12 12 12 12 12 12 12 12 12 12 12 13 13 13 12 12 12 11
13 12 12 12 12 12 12 11 11 11 11 11 11 11 11 11 11 11 11 11 11 11 11 11 12 12 12 12 12 12 12 12 12 12 12 12 12 12 12 12 12 12 12
13 13 13 12 12 12 12 12 11 11 11 11 11 11 11 11 11 11 11 11 11 11 11 11 11 12 12 12 12 12 12 12 12 12 12 12 12 12 12 12 12 12 12
14 13 13 13 12 12 12 12 11 11 11 11 11 11 11 11 11 12 11 11 11 11 11 11 11 11 12 12 12 12 12 11 11 11 11 11 11 11 11 11 11 12 11
14 14 13 13 13 12 12 12 11 11 11 11 11 11 11 11 11 11 11 11 12 11 11 11 11 11 11 11 11 11 11 11 11 11 11 11 11 11 11 11 11 11 11
14 14 14 13 13 13 13 12 12 11 11 11 11 11 11 11 11 11 11 11 11 11 11 11 11 11 11 11 11 11 11 11 11 11 11 11 11 11 11 11 11 11 11
15 14 14 14 13 13 13 13 12 12 12 11 11 11 11 11 11 11 11 11 11 11 11 11 11 11 11 11 11 11 11 11 11 11 11 11 11 10 10 10 10 10 10
15 14 14 14 14 14 13 13 13 13 13 12 12 12 11 11 11 11 11 11 11 11 11 11 10 11 11 11 11 11 11 11 11 11 10 10 10 10 10 10 10 10 10
15 15 15 14 14 14 14 13 13 13 13 13 12 12 12 12 11 11 11 11 11 11 11 10 10 10 11 11 11 11 10 10 10 10 10 10 10 10 10 10 10 10 10
15 15 15 15 15 14 14 13 13 13 12 12 12 12 12 12 12 11 11 11 11 11 11 10 11 11 11 11 11 11 10 10 10 10 10 10 10 10 10 10 9 9 9
15 15 15 15 15 14 14 14 13 13 13 13 12 12 12 12 12 11 11 11 11 11 11 11 11 11 11 11 11 11 10 10 10 10 10 10 10 9 9 9 9 9 9
15 15 15 15 14 14 14 14 14 13 13 13 13 12 12 12 12 12 11 11 11 11 11 11 11 11 11 11 11 10 10 10 10 10 10 10 9 9 9 9 9 9 9
14 14 14 15 14 14 14 14 13 13 13 13 13 13 13 12 12 12 11 11 11 11 11 11 11 11 11 11 11 10 10 10 10 10 10 10 9 9 9 9 9 9 9
13 13 13 13 13 13 13 13 13 13 13 13 13 13 13 12 12 12 12 12 12 12 11 11 11 11 11 11 11 11 10 10 10 10 10 10 9 9 9 9 9 9 9
12 12 12 12 12 12 12 12 13 13 13 13 13 13 12 12 12 12 12 12 12 12 12 12 12 11 11 11 11 11 11 10 10 10 10 10 9 9 9 9 9 9 9
11 11 11 11 11 11 11 11 12 12 12 12 12 12 12 12 12 12 12 12 12 12 12 12 12 12 11 11 11 11 11 11 10 10 10 10 9 9 9 9 9 9 8
9 9 9 9 9 10 10 10 11 11 11 12 12 12 12 12 12 12 12 12 12 12 12 12 12 12 12 11 12 12 12 11 11 11 10 10 10 9 9 9 8 8 8
8 8 8 8 8 8 8 9 9 10 10 10 11 11 11 11 11 11 11 11 11 11 12 12 12 12 12 12 11 12 12 11 11 11 10 10 10 9 9 9 9 8 8
Wind_Speed
7 8 8 8 8 8 8 8 8 7 7 6 6 6 5 4 3 3 3 3 3 4 4 5 6 6 5 4 4 5 5 5 5 3 2 3 5 6 6 7 7 8 9
6 7 7 7 7 8 8 8 8 7 7 7 6 5 5 4 3 2 2 3 3 4 4 5 6 5 6 5 4 5 5 6 6 5 3 4 4 6 7 7 6 7 7
5 6 7 7 8 8 8 8 8 8 7 7 6 6 5 5 3 3 2 2 3 4 4 5 5 5 6 5 5 5 5 5 5 5 4 3 3 4 6 7 6 5 6
5 5 6 7 7 8 8 8 8 8 8 8 7 7 6 5 5 4 3 2 2 2 3 4 4 5 5 5 5 6 5 6 6 5 5 5 4 4 6 6 6 5 5
4 5 6 6 6 6 7 7 8 8 9 8 8 8 7 6 6 6 4 3 2 2 2 2 2 2 2 3 3 4 5 6 6 6 6 5 5 6 7 6 6 6 4
3 4 5 5 5 6 7 7 8 8 8 8 8 8 7 6 8 8 7 3 2 2 2 1 1 2 2 3 2 2 4 6 7 6 5 7 7 7 6 7 8 7 4
2 3 3 4 5 5 6 6 7 7 8 8 8 8 7 8 9 8 8 4 3 2 2 1 0 0 2 2 3 5 4 5 5 6 7 7 7 7 8 9 8 7 5
2 2 2 3 4 5 5 6 6 6 7 7 8 8 7 8 10 9 8 4 3 3 2 2 1 1 1 1 2 2 2 2 3 5 5 5 6 6 8 8 8 7 6
2 2 2 2 3 4 5 5 5 6 6 6 6 6 6 7 9 9 8 4 4 4 4 4 3 3 4 3 0 2 1 1 3 4 4 5 6 7 8 7 8 8 5
3 2 2 2 3 3 4 4 5 5 5 5 5 5 6 6 9 9 9 3 4 4 4 4 6 6 5 5 1 2 3 3 4 5 6 6 7 9 9 8 8 8 5
3 3 3 3 3 3 3 3 4 4 4 4 5 4 5 6 6 8 9 4 4 4 4 4 5 7 6 6 3 3 3 2 4 5 5 5 5 5 5 5 5 5 6
4 4 4 4 4 3 3 3 3 3 3 3 4 4 3 3 5 6 7 7 6 3 3 4 5 7 6 6 5 6 4 2 4 4 5 4 4 4 4 5 5 4 3
6 6 6 5 5 4 4 4 4 3 3 3 3 3 3 3 2 2 3 4 5 3 3 5 4 4 2 4 5 3 1 3 4 4 4 4 4 5 5 5 6 6 7
8 8 7 7 6 6 5 5 4 4 4 4 3 3 3 2 2 2 1 1 1 0 1 2 2 2 2 3 2 2 2 3 3 4 4 4 4 4 5 5 5 5 5
9 9 8 7 7 6 6 5 6 5 4 5 5 4 4 3 2 3 4 3 3 2 2 1 1 1 1 2 2 2 2 3 3 3 4 4 4 4 4 4 4 5 4
10 9 8 7 7 7 7 6 9 9 6 8 9 8 5 4 2 3 4 4 4 5 4 2 2 2 1 2 2 2 2 3 3 3 4 4 5 5 4 4 4 4 5
11 10 8 8 8 8 7 7 7 8 12 12 12 12 12 8 7 7 6 5 5 5 5 4 4 3 3 3 3 3 3 3 3 3 4 4 4 4 5 5 5 5 5
11 11 10 9 9 9 9 8 8 8 7 7 11 14 13 12 11 10 8 6 6 7 6 6 5 5 4 4 4 4 4 4 5 5 5 5 5 5 5 5 5 6 5
9 9 9 9 9 10 9 9 9 10 9 9 8 8 12 12 11 11 9 8 8 7 7 7 6 6 6 6 5 5 5 5 6 6 6 6 6 6 6 6 5 6 5
8 10 10 10 10 10 10 10 10 10 10 10 10 9 8 8 8 9 10 10 10 9 8 8 7 7 7 7 7 7 7 7 7 7 7 7 7 7 7 7 7 7 7
8 8 9 9 10 11 11 11 11 11 11 11 11 10 9 10 10 11 10 10 11 10 10 9 9 8 8 8 8 9 9 8 8 8 8 7 8 7 7 7 8 7 7
8 8 8 8 9 10 11 11 11 12 12 13 11 10 12 11 11 11 11 11 11 11 10 10 9 9 9 9 10 10 10 10 9 9 9 8 8 8 8 8 8 8 8
9 9 9 8 9 9 10 11 11 12 12 12 12 11 10 11 12 12 12 12 11 11 11 10 11 10 10 10 11 11 11 11 10 10 10 9 9 9 9 10 11 10 10
9 9 9 9 9 9 9 10 11 11 12 12 12 12 12 12 12 13 13 12 12 12 11 11 12 14 16 13 11 12 13 12 12 11 13 11 11 10 10 10 10 12 11
10 10 10 9 9 9 10 10 10 11 11 12 12 12 12 12 12 12 12 12 13 13 14 13 12 14 17 18 16 14 15 16 14 12 12 11 12 12 12 12 11 11 11
11 11 10 10 10 10 10 10 10 11 11 11 11 11 11 11 12 12 11 11 12 12 13 13 15 17 17 17 19 19 18 20 20 17 13 11 12 12 13 11 13 12 12
Wind_Direction
348 349 350 352 350 348 349 348 343 345 346 343 340 336 329 325 312 297 283 268 248 241 236 230 225 220 216 212 210 211 216 216 216 202 190 192 198 194 176 182 179 174 170
346 347 351 351 354 353 353 351 348 349 349 349 345 342 337 325 312 303 285 274 256 246 245 243 235 222 220 217 215 216 216 216 215 201 193 193 203 189 180 177 171 172 162
346 349 353 357 358 356 354 356 356 356 354 355 355 351 346 339 329 310 292 275 264 252 247 243 238 229 228 219 219 217 214 212 207 198 195 194 196 182 176 169 163 154 148
342 350 356 357 356 353 354 358 360 1 1 2 2 359 355 350 344 333 324 311 288 275 266 249 240 232 232 228 222 215 207 204 202 197 191 191 188 181 176 167 159 152 145
337 348 354 356 358 356 357 0 3 3 4 7 7 7 7 4 2 351 348 343 342 330 305 279 252 244 249 243 235 218 208 205 201 202 197 193 190 185 185 173 163 147 139
333 348 352 352 357 357 356 360 4 3 4 7 8 8 9 14 14 5 346 352 350 337 325 285 228 200 199 214 230 236 227 211 205 203 205 198 194 189 180 171 161 160 155
325 344 345 350 356 353 353 359 0 2 7 7 10 10 13 19 17 10 354 346 356 354 354 2 4 207 234 215 191 199 207 217 223 216 210 203 192 185 178 177 175 169 152
308 328 342 345 350 349 350 353 353 358 5 5 9 11 16 20 16 6 346 357 16 22 31 35 47 67 54 319 217 206 207 215 211 209 206 199 191 183 180 175 157 134 114
280 301 320 330 340 343 347 349 349 353 359 2 9 8 11 20 20 6 348 20 26 30 35 35 33 57 43 351 233 150 128 90 84 107 120 134 135 143 151 151 151 152 145
255 268 282 299 314 328 337 340 343 345 347 350 3 4 10 14 24 11 353 18 27 31 32 42 54 42 27 1 68 118 119 107 115 116 120 133 141 143 153 167 167 165 150
241 247 251 260 276 298 314 322 329 337 340 345 355 360 8 14 25 22 5 12 20 25 31 35 47 42 35 28 23 80 86 98 118 118 117 121 128 136 150 156 163 170 164
232 239 246 253 263 272 282 296 305 315 323 333 340 351 358 19 26 28 18 13 356 27 32 34 47 43 43 41 54 67 72 101 116 119 118 119 124 126 129 130 128 123 127
232 238 243 247 248 254 265 273 280 286 302 321 331 340 347 357 28 64 26 16 2 14 41 47 40 42 63 88 78 64 108 119 120 119 117 112 113 121 122 117 111 102 96
239 245 244 247 248 244 247 260 268 276 282 292 304 315 325 326 334 350 360 46 133 121 65 106 122 56 84 87 113 100 89 91 112 122 124 125 128 136 141 143 141 139 127
246 248 247 245 251 255 248 249 258 261 269 277 289 293 297 303 2 358 321 326 336 346 320 255 205 171 144 131 124 111 128 141 134 139 144 145 146 146 147 153 163 168 165
251 252 250 246 242 246 252 247 224 237 238 237 252 269 272 263 269 264 276 296 307 304 282 248 233 218 199 183 174 164 167 163 159 161 160 159 162 161 159 164 177 178 170
251 253 251 249 245 243 245 253 258 232 224 234 236 238 246 257 243 244 249 255 260 260 251 247 241 233 221 210 204 200 193 182 178 178 174 173 171 171 172 173 177 177 173
256 255 252 250 248 247 245 246 250 258 255 245 224 221 227 234 237 238 237 241 239 229 239 243 240 235 230 224 218 211 203 196 194 192 189 187 185 186 184 183 184 184 179
263 261 255 254 250 248 247 245 246 249 253 255 252 218 210 220 225 229 220 233 244 241 236 236 236 233 228 225 221 217 212 208 205 202 198 197 196 197 196 193 187 173 191
272 264 261 259 255 249 246 245 245 245 248 250 248 246 216 206 225 221 216 228 238 241 239 236 232 230 225 222 218 214 215 213 210 210 207 204 204 204 202 200 196 191 198
290 278 252 256 257 254 250 248 247 247 247 248 248 242 223 228 237 239 232 229 232 237 236 235 231 225 223 220 218 217 217 216 213 212 208 206 207 207 209 207 203 203 201
305 297 286 273 266 261 258 255 253 251 250 250 252 239 202 227 242 242 240 236 235 235 236 232 230 225 221 218 218 219 220 219 216 213 211 208 208 210 210 210 208 204 203
319 313 304 294 284 276 267 263 259 255 254 252 250 248 233 231 237 240 241 239 237 234 230 228 229 227 222 220 220 221 222 221 217 213 212 210 210 211 210 210 209 208 207
335 329 321 313 305 295 286 278 271 265 261 258 254 250 247 243 242 242 242 240 236 233 230 226 228 228 225 220 219 219 222 222 218 215 214 215 213 213 212 212 212 212 213
346 341 336 329 322 313 304 296 288 281 273 266 261 257 253 250 248 247 244 241 239 236 232 229 229 230 231 225 220 218 212 209 211 214 210 213 216 214 214 214 213 213 213
354 350 345 340 335 329 321 313 305 299 291 283 275 269 263 257 254 252 248 244 241 238 237 234 231 229 229 228 225 219 206 201 203 207 211 212 214 215 213 215 216 214 215
Height
1524 1521 1518 1515 1511 1508 1506 1502 1499 1497 1494 1492 1490 1488 1486 1485 1485 1484 1484 1484 1484 1485 1486 1487 1489 1490 1491 1493 1494 1496 1498 1500 1502 1504 1505 1507 1509 1512 1514 1517 1519 1521 1523
1523 1521 1518 1514 1511 1508 1505 1502 1499 1497 1494 1492 1489 1487 1486 1485 1484 1483 1482 1482 1483 1483 1484 1485 1486 1487 1488 1490 1491 1493 1495 1497 1499 1500 1501 1504 1506 1508 1510 1513 1515 1517 1519
1523 1521 1518 1515 1512 1509 1506 1502 1500 1497 1495 1492 1489 1487 1485 1484 1483 1482 1481 1481 1481 1481 1481 1482 1483 1484 1485 1487 1488 1490 1491 1493 1495 1496 1498 1500 1502 1505 1507 1509 1511 1514 1516
1523 1521 1518 1515 1512 1509 1507 1504 1501 1498 1495 1492 1490 1487 1485 1483 1482 1481 1480 1480 1479 1479 1479 1479 1480 1481 1483 1484 1485 1487 1488 1490 1491 1493 1494 1497 1499 1501 1503 1505 1508 1510 1513
1523 1521 1518 1516 1513 1510 1507 1505 1502 1499 1496 1493 1490 1488 1485 1483 1481 1480 1480 1479 1479 1478 1477 1478 1478 1479 1480 1481 1483 1484 1485 1486 1488 1489 1491 1493 1495 1497 1500 1502 1504 1506 1509
1523 1520 1518 1516 1513 1511 1508 1506 1503 1500 1497 1494 1491 1488 1485 1483 1481 1480 1479 1478 1478 1477 1477 1477 1477 1478 1478 1479 1480 1481 1482 1483 1485 1486 1488 1489 1491 1494 1496 1498 1501 1504 1506
1522 1520 1518 1516 1514 1511 1509 1507 1504 1501 1498 1495 1492 1488 1486 1484 1482 1481 1479 1478 1478 1477 1477 1477 1476 1477 1477 1478 1478 1479 1480 1480 1482 1483 1484 1486 1488 1490 1493 1496 1498 1501 1504
1522 1520 1518 1516 1514 1512 1509 1507 1505 1502 1499 1496 1493 1490 1487 1486 1484 1482 1480 1479 1478 1478 1477 1477 1476 1476 1476 1476 1477 1477 1478 1478 1478 1480 1481 1483 1485 1488 1490 1493 1496 1499 1502
1521 1519 1518 1516 1514 1512 1510 1507 1505 1503 1500 1498 1495 1492 1490 1488 1485 1483 1481 1480 1479 1479 1478 1477 1477 1477 1476 1475 1476 1476 1476 1476 1476 1477 1479 1481 1483 1485 1488 1491 1494 1497 1499
1520 1518 1517 1515 1513 1512 1510 1508 1506 1504 1501 1499 1496 1494 1492 1489 1487 1485 1483 1482 1481 1480 1479 1478 1477 1476 1476 1476 1476 1475 1475 1475 1476 1477 1478 1480 1482 1484 1486 1490 1492 1495 1497
1518 1517 1516 1514 1513 1511 1509 1508 1506 1504 1502 1500 1498 1495 1493 1491 1489 1487 1485 1484 1482 1481 1480 1479 1478 1477 1477 1476 1476 1476 1476 1476 1477 1477 1478 1480 1482 1484 1486 1488 1491 1494 1496
1516 1515 1514 1513 1512 1510 1509 1507 1506 1504 1502 1501 1499 1497 1494 1492 1490 1488 1487 1485 1484 1483 1482 1481 1480 1479 1478 1477 1477 1477 1477 1478 1478 1479 1480 1481 1482 1484 1486 1488 1490 1492 1495
1514 1514 1513 1512 1510 1509 1508 1506 1505 1504 1502 1501 1499 1498 1496 1493 1491 1489 1488 1486 1485 1484 1483 1482 1481 1480 1480 1479 1479 1479 1479 1480 1480 1481 1481 1482 1483 1485 1487 1488 1490 1492 1494
1512 1512 1511 1510 1509 1507 1506 1505 1504 1503 1501 1500 1499 1497 1496 1494 1492 1490 1489 1487 1486 1485 1484 1483 1482 1482 1481 1480 1480 1480 1481 1481 1482 1482 1482 1483 1484 1486 1487 1489 1490 1492 1494
1509 1509 1508 1507 1506 1505 1504 1503 1501 1500 1499 1498 1497 1496 1495 1493 1492 1490 1488 1487 1486 1485 1484 1484 1483 1483 1482 1482 1482 1481 1482 1482 1482 1483 1483 1484 1485 1486 1487 1489 1490 1492 1494
1506 1506 1505 1504 1503 1502 1501 1500 1498 1497 1496 1495 1494 1493 1492 1491 1490 1489 1488 1487 1486 1485 1484 1484 1483 1483 1482 1482 1482 1482 1482 1482 1483 1483 1484 1484 1485 1486 1487 1488 1490 1492 1493
1502 1502 1501 1500 1499 1498 1497 1496 1496 1494 1493 1492 1491 1490 1489 1488 1488 1487 1486 1485 1484 1483 1483 1483 1482 1482 1481 1481 1481 1481 1481 1481 1482 1482 1483 1484 1485 1486 1487 1488 1489 1490 1491
1497 1497 1496 1495 1495 1494 1493 1492 1491 1491 1490 1488 1487 1486 1485 1485 1484 1484 1483 1482 1482 1481 1481 1480 1480 1480 1479 1479 1479 1479 1479 1480 1480 1481 1481 1482 1483 1484 1485 1486 1487 1489 1490
1492 1491 1491 1490 1489 1489 1488 1487 1486 1485 1485 1484 1483 1482 1481 1480 1480 1480 1479 1479 1478 1478 1478 1477 1477 1477 1476 1476 1476 1477 1477 1477 1478 1478 1479 1480 1481 1482 1483 1484 1485 1486 1488
1486 1485 1485 1484 1483 1483 1482 1481 1481 1480 1479 1478 1478 1477 1476 1475 1475 1475 1474 1474 1473 1473 1473 1473 1473 1472 1472 1472 1473 1473 1473 1474 1474 1475 1476 1477 1478 1479 1480 1481 1483 1484 1485
1480 1479 1478 1477 1476 1476 1475 1475 1474 1474 1473 1472 1472 1471 1471 1470 1469 1469 1469 1468 1468 1468 1468 1467 1468 1467 1468 1468 1468 1469 1469 1470 1470 1471 1472 1473 1474 1475 1477 1478 1480 1481 1482
1475 1474 1473 1471 1470 1469 1469 1468 1468 1467 1466 1465 1465 1464 1463 1463 1462 1462 1462 1461 1461 1461 1461 1461 1461 1462 1462 1462 1463 1464 1464 1465 1466 1467 1468 1469 1470 1471 1473 1474 1475 1477 1478
1471 1469 1467 1466 1465 1463 1462 1461 1460 1460 1459 1458 1458 1457 1456 1455 1455 1455 1455 1455 1454 1454 1454 1454 1455 1455 1455 1456 1457 1457 1458 1459 1460 1461 1463 1464 1465 1466 1468 1469 1471 1473 1474
1468 1465 1463 1461 1459 1458 1456 1455 1454 1453 1452 1451 1451 1450 1449 1448 1447 1447 1447 1447 1447 1447 1447 1447 1447 1448 1449 1449 1450 1451 1452 1453 1454 1455 1457 1458 1460 1461 1463 1464 1466 1468 1469
1465 1462 1460 1457 1455 1453 1451 1449 1448 1447 1445 1444 1443 1442 1441 1441 1440 1439 1439 1439 1439 1439 1439 1439 1440 1440 1441 1442 1442 1444 1445 1447 1448 1449 1451 1452 1454 1455 1457 1459 1460 1462 1464
1463 1460 1457 1454 1452 1449 1447 1444 1442 1441 1439 1438 1436 1435 1434 1433 1432 1432 1431 1431 1430 1430 1431 1431 1432 1432 1433 1434 1435 1436 1438 1440 1441 1443 1444 1445 1447 1448 1450 1452 1454 1456 1458